Location: Bothwell
(42.3833°S, 147.0000°E)
Time: 15:13:39
(UTC+11:00)

STRAND 1 - Pass Details

Date: 03 October 2022
Orbit: 767 x 781 km, 98.4° (Epoch: 03 December)

Event Time Altitude Azimuth Distance (km) Brightness Sun altitude
Rises 20:21:45 0° 338° (NNW) 3,251 ? -11.9°
Reaches altitude 10° 20:24:35 10° 322° (NW) 2,331 ? -12.4°
Maximum altitude 20:28:28 21° 273° (W) 1,682 ? -13.1°
Drops below altitude 10° 20:32:23 10° 223° (SW) 2,348 ? -13.8°
Sets 20:35:16 0° 207° (SSW) 3,282 ? -14.3°
